Temp
22 22 23 23 23 22 21 21 20 19 17 16 16 16 16 16 16 16 15 15 15 15 15 15 14 14 14 14 13 13 13 14
20 21 22 23 23 23 21 20 20 18 17 16 16 16 16 16 16 16 16 15 15 15 15 15 14 15 15 14 13 13 13 13
19 20 21 22 22 21 20 19 20 19 17 17 16 16 15 15 15 15 15 15 15 15 14 14 14 14 14 14 14 13 13 13
18 19 20 21 21 22 21 20 19 19 18 15 15 15 15 14 15 15 14 14 14 14 14 13 13 13 13 13 13 12 12 13
17 18 19 20 21 21 21 19 17 16 15 15 15 15 15 15 14 14 14 14 14 14 14 13 13 13 12 12 12 12 12 11
18 18 19 19 19 20 19 18 16 15 15 15 15 14 14 14 13 13 13 13 13 13 14 14 14 13 12 12 11 10 10 10
16 16 17 17 17 17 18 16 15 15 15 14 14 14 13 13 13 13 13 13 14 14 13 13 12 12 11 11 10 10 10 10
15 15 15 15 15 16 15 15 15 14 14 13 13 13 13 14 14 14 14 14 14 13 12 11 11 11 10 10 9 9 9 9
16 15 14 14 13 13 14 14 14 13 13 13 13 13 13 14 14 13 13 13 12 12 11 11 10 10 10 9 9 8 8 8
15 15 14 13 13 13 13 13 13 12 13 13 13 13 13 13 12 12 12 11 11 11 10 10 9 9 9 8 8 8 8 8
13 13 13 13 13 13 13 13 13 13 13 13 13 12 12 11 11 11 11 10 10 9 9 8 8 7 7 7 7 8 8 7
12 12 12 13 13 13 13 13 13 13 13 13 12 12 11 11 10 10 9 9 8 8 7 7 7 6 6 7 6 6 6 6
10 10 12 12 12 12 13 13 13 13 13 12 12 11 11 10 9 9 8 8 7 6 5 5 5 5 5 6 6 6 5 5
9 11 12 12 12 12 12 11 12 12 11 11 10 10 9 9 8 8 7 6 5 5 5 4 4 5 5 5 5 4 3 3
10 12 12 12 12 12 12 11 11 11 10 10 9 9 8 8 7 7 6 5 5 4 4 4 5 5 4 4 3 3 3 3
10 11 12 12 12 12 11 10 10 10 10 9 9 8 8 7 7 6 6 5 4 3 4 4 3 3 3 3 3 2 2 2
10 10 11 12 12 11 10 10 10 9 9 9 8 7 7 7 7 6 4 4 4 1 0 1 2 2 2 2 1 2 2 1
10 11 12 11 11 11 10 10 9 9 9 8 8 7 7 6 5 4 2 1 1 1 0 -0 -1 -0 1 1 1 1 1 0
11 10 9 11 11 10 10 10 9 9 8 8 7 6 6 5 4 3 2 1 1 -0 -0 -1 -2 -1 0 1 1 0 -0 -1
Height
1454 1458 1462 1465 1466 1469 1474 1479 1482 1488 1490 1496 1496 1500 1505 1508 1509 1511 1514 1515 1516 1518 1519 1521 1521 1522 1522 1523 1522 1523 1522 1522
1447 1452 1456 1458 1461 1464 1468 1473 1476 1481 1486 1490 1492 1497 1500 1504 1506 1508 1509 1511 1512 1513 1515 1517 1518 1518 1520 1520 1519 1518 1518 1518
1443 1446 1450 1453 1456 1459 1463 1468 1473 1478 1483 1485 1490 1495 1499 1501 1502 1503 1504 1506 1507 1510 1510 1512 1515 1515 1515 1515 1515 1515 1514 1515
1436 1439 1444 1447 1451 1455 1458 1462 1467 1473 1477 1483 1488 1493 1494 1496 1498 1499 1500 1501 1503 1505 1507 1507 1508 1510 1510 1510 1510 1510 1509 1510
1431 1434 1437 1440 1445 1451 1454 1459 1464 1469 1475 1479 1483 1486 1488 1491 1493 1494 1495 1497 1499 1501 1501 1502 1503 1504 1504 1505 1505 1505 1506 1506
1422 1427 1430 1434 1440 1443 1450 1456 1462 1467 1471 1475 1478 1481 1484 1486 1488 1490 1492 1494 1496 1498 1498 1499 1500 1500 1500 1500 1500 1501 1501 1501
1421 1424 1426 1430 1435 1438 1443 1449 1456 1463 1467 1471 1473 1477 1480 1482 1484 1487 1489 1492 1493 1495 1496 1496 1497 1497 1498 1497 1497 1498 1498 1498
1414 1418 1423 1428 1429 1432 1438 1445 1450 1459 1465 1469 1472 1474 1477 1480 1482 1484 1486 1488 1489 1491 1491 1492 1492 1493 1493 1494 1493 1493 1493 1494
1407 1414 1418 1423 1428 1434 1437 1444 1448 1454 1461 1466 1471 1472 1475 1477 1479 1481 1483 1485 1486 1487 1488 1489 1489 1489 1489 1489 1489 1489 1488 1488
1399 1408 1414 1419 1423 1428 1435 1442 1448 1453 1459 1463 1468 1471 1473 1475 1476 1478 1480 1482 1483 1484 1485 1484 1484 1484 1485 1484 1483 1483 1484 1482
1395 1401 1407 1415 1422 1427 1434 1440 1445 1448 1455 1461 1465 1468 1470 1471 1473 1475 1477 1479 1480 1481 1481 1481 1480 1480 1481 1480 1480 1479 1479 1478
1388 1395 1404 1412 1420 1426 1431 1437 1442 1446 1450 1457 1461 1463 1465 1467 1470 1472 1474 1475 1476 1477 1477 1476 1476 1476 1475 1475 1474 1473 1473 1472
1385 1391 1398 1407 1417 1425 1429 1435 1439 1443 1446 1453 1457 1460 1462 1464 1466 1468 1470 1471 1472 1474 1474 1473 1473 1472 1471 1470 1470 1469 1468 1467
1382 1390 1396 1402 1410 1419 1428 1433 1436 1437 1443 1449 1454 1457 1459 1462 1464 1465 1467 1468 1468 1469 1469 1468 1467 1468 1466 1464 1464 1463 1462 1461
1378 1385 1393 1400 1406 1413 1420 1428 1434 1436 1442 1447 1450 1453 1456 1459 1461 1462 1463 1464 1465 1466 1466 1464 1463 1462 1463 1460 1460 1459 1458 1457
1371 1377 1383 1393 1401 1407 1415 1422 1429 1433 1437 1441 1446 1450 1453 1455 1457 1459 1461 1462 1462 1462 1460 1459 1459 1458 1460 1457 1456 1455 1454 1455
1366 1376 1382 1386 1392 1399 1409 1415 1421 1427 1433 1438 1442 1446 1449 1452 1454 1456 1457 1457 1457 1457 1456 1455 1454 1454 1456 1454 1453 1452 1452 1452
1361 1368 1372 1379 1385 1393 1401 1411 1418 1424 1427 1432 1436 1441 1446 1448 1449 1450 1451 1452 1453 1453 1452 1451 1452 1452 1454 1452 1451 1451 1451 1451
1354 1364 1371 1379 1385 1392 1398 1406 1413 1420 1426 1429 1433 1438 1442 1443 1445 1448 1449 1450 1451 1452 1451 1451 1452 1451 1452 1451 1451 1450 1449 1449
Wind_Speed
45 41 41 40 41 41 41 36 31 28 28 27 27 26 26 25 23 20 20 20 19 19 18 18 18 19 19 22 24 25 26 23
40 41 42 43 42 42 37 40 34 33 30 29 28 29 27 23 21 22 23 23 22 22 22 23 21 21 20 22 24 25 27 26
38 38 36 35 38 38 36 38 36 33 32 30 30 25 25 25 23 23 22 23 23 23 23 22 21 23 23 24 26 26 25 25
41 38 37 35 34 33 35 40 37 34 34 32 30 30 26 23 24 23 21 22 24 21 20 21 22 22 23 22 21 19 21 22
42 41 38 37 36 33 34 36 35 32 36 36 36 30 28 28 24 25 24 23 21 23 18 18 18 19 20 21 20 21 21 19
47 44 40 36 35 33 35 34 33 34 36 35 31 26 25 23 19 17 17 16 14 14 14 15 17 18 18 18 17 16 19 18
43 41 40 39 37 36 36 36 35 35 32 28 25 23 22 19 18 17 15 14 14 14 14 15 15 15 16 18 18 18 21 23
44 41 41 39 39 38 38 36 35 33 28 25 23 23 21 19 17 16 15 14 13 13 13 14 16 17 18 19 19 19 20 21
46 44 44 42 38 35 34 33 33 33 29 25 23 22 20 17 15 14 14 14 14 14 15 16 17 18 19 20 21 22 23 24
50 48 46 44 41 37 35 34 33 32 29 26 23 21 18 16 14 12 11 11 11 12 13 13 14 15 16 17 19 22 24 23
47 51 49 46 40 36 34 34 34 32 28 25 21 17 13 10 8 8 8 8 9 11 11 12 13 14 15 17 19 20 20 21
49 51 51 46 40 36 35 35 34 31 28 23 19 15 12 10 9 8 7 8 9 10 12 13 14 16 17 19 19 17 17 19
41 49 54 46 40 36 35 34 32 28 25 22 18 15 11 9 9 9 10 11 11 11 12 13 16 18 21 23 19 18 18 18
41 49 50 47 44 41 35 31 30 28 24 20 17 12 9 9 9 10 11 11 11 12 14 16 18 22 22 18 17 16 15 15
46 52 50 48 44 39 36 32 29 26 21 19 14 11 10 9 9 10 11 13 15 16 17 19 20 15 15 13 13 13 13 13
50 56 55 50 45 41 37 34 30 27 24 19 15 13 11 9 9 11 14 17 17 17 15 13 12 13 12 11 10 10 12 13
48 50 53 52 51 47 40 36 34 28 22 17 15 12 9 11 14 14 12 12 11 10 10 11 11 10 10 7 8 9 10 11
47 58 60 59 53 48 45 40 33 26 21 18 14 12 12 11 8 6 3 2 4 5 6 8 10 10 8 8 9 9 10 10
51 50 49 54 50 48 43 38 31 25 21 17 14 11 7 2 3 5 5 4 4 7 9 7 7 9 7 8 9 7 8 9
Wind_Direction
215 220 221 225 232 233 228 220 212 210 208 205 204 214 220 224 227 229 235 241 244 249 253 256 261 267 272 272 271 271 273 274
198 205 216 220 222 223 219 215 214 210 207 207 208 215 219 223 227 239 243 241 243 247 248 251 257 263 274 273 270 270 273 276
188 193 199 203 207 212 216 214 214 213 212 212 215 219 227 233 236 238 241 243 242 245 246 250 251 262 266 267 268 272 273 269
189 190 190 190 193 200 211 216 216 214 213 209 214 217 222 233 246 247 243 244 246 245 248 254 259 262 266 267 276 285 281 282
192 190 192 195 198 204 209 211 211 208 201 208 214 219 225 233 230 240 243 245 245 248 249 252 256 261 264 267 268 271 273 281
197 196 197 196 196 200 201 204 203 201 205 209 217 216 219 226 219 213 211 213 211 217 233 244 249 252 258 265 270 273 277 276
198 193 193 192 190 188 191 194 192 200 205 207 205 205 197 189 188 195 202 210 222 236 250 256 259 264 273 279 280 274 276 280
198 192 183 184 185 186 187 188 187 193 196 190 188 190 189 192 198 209 219 229 238 245 252 259 268 277 282 283 282 283 285 285
200 195 184 178 174 173 174 179 178 180 182 184 188 187 195 200 202 208 217 227 238 248 256 263 269 275 280 283 284 283 282 283
201 195 190 181 175 173 173 174 175 175 179 192 185 187 191 197 203 212 225 239 251 258 264 270 276 281 285 288 292 291 287 282
192 193 187 180 177 175 176 177 177 173 176 180 183 185 191 196 206 224 242 259 266 270 272 274 279 285 290 293 298 292 290 289
190 187 184 179 180 180 178 179 178 176 177 183 188 191 192 198 216 235 249 259 266 270 273 278 282 286 291 300 300 288 282 281
182 180 180 176 179 179 180 181 182 181 183 188 194 196 200 214 230 246 257 262 264 268 275 283 292 297 300 303 298 294 291 291
176 180 181 178 179 179 181 181 182 180 182 188 191 198 212 230 245 250 255 257 253 264 274 282 287 291 293 293 295 298 302 305
176 179 180 179 177 178 181 183 185 181 184 189 194 207 217 235 245 253 257 260 264 266 272 278 283 287 294 299 298 301 308 313
179 180 180 177 180 181 182 182 184 186 186 189 201 210 227 241 257 263 262 262 264 273 282 289 294 299 302 307 306 315 318 319
179 180 179 182 184 183 180 184 185 186 187 196 205 215 231 252 255 251 251 260 277 298 307 302 305 305 305 314 317 316 313 310
177 183 187 187 183 182 183 182 183 184 191 195 202 218 230 235 235 227 232 251 260 267 293 317 315 309 311 313 314 314 312 312
184 186 183 185 183 183 181 183 183 189 193 198 199 203 202 203 233 226 234 251 284 313 317 311 309 312 315 316 314 309 306 311